This is the latest recevied weather packets stored in our database for station/object EA3ANS-1. If no packets are shown the sender has not sent any weather packets the latest 10 day(s).
| Time | Temp. | Humidity | Pressure | Rain* | Wind** | Luminosity | Snow |
|---|---|---|---|---|---|---|---|
| 1777652474 | 20° C | - | 1020.6 hPa | 0 mm | 3.58 m/s, 127° | - | - |
| 1777651877 | 20.56° C | - | 1020.6 hPa | 0 mm | 3.13 m/s, 165° | - | - |
| 1777651275 | 20° C | - | 1020.4 hPa | 0 mm | 3.58 m/s, 131° | - | - |
| 1777650677 | 20.56° C | - | 1020.6 hPa | 0 mm | 3.58 m/s, 139° | - | - |
| 1777650067 | 21.11° C | - | 1020.6 hPa | 0 mm | 4.02 m/s, 142° | - | - |
| 1777649464 | 21.11° C | - | 1020.4 hPa | 0 mm | 2.68 m/s, 210° | - | - |
| 1777648867 | 21.11° C | - | 1020.6 hPa | 0 mm | 4.02 m/s, 153° | - | - |
| 1777648267 | 21.11° C | - | 1020.7 hPa | 0 mm | 2.68 m/s, 135° | - | - |
| 1777647668 | 21.11° C | - | 1020.5 hPa | 0 mm | 4.02 m/s, 165° | - | - |
| 1777647070 | 22.22° C | - | 1020.8 hPa | 0 mm | 3.13 m/s, 211° | - | - |
| 1777646473 | 22.22° C | - | 1020.8 hPa | 0 mm | 3.58 m/s, 155° | - | - |
| 1777645865 | 22.22° C | - | 1020.8 hPa | 0 mm | 3.58 m/s, 167° | - | - |
| 1777645268 | 21.67° C | - | 1020.9 hPa | 0 mm | 2.68 m/s, 158° | - | - |
| 1777644670 | 22.22° C | - | 1021 hPa | 0 mm | 4.02 m/s, 132° | - | - |
| 1777644073 | 21.67° C | - | 1021 hPa | 0 mm | 4.47 m/s, 118° | - | - |
| 1777643469 | 22.22° C | - | 1021 hPa | 0 mm | 3.58 m/s, 205° | - | - |
| 1777642871 | 21.67° C | - | 1021 hPa | 0 mm | 4.47 m/s, 158° | - | - |
| 1777642271 | 21.67° C | - | 1020.8 hPa | 0 mm | 4.92 m/s, 146° | - | - |
| 1777641666 | 22.22° C | - | 1020.9 hPa | 0 mm | 3.13 m/s, 97° | - | - |
| 1777641069 | 21.67° C | - | 1020.8 hPa | 0 mm | 3.58 m/s, 167° | - | - |
| 1777640467 | 21.67° C | - | 1020.7 hPa | 0 mm | 3.58 m/s, 173° | - | - |
| 1777639867 | 22.22° C | - | 1020.8 hPa | 0 mm | 3.58 m/s, 138° | - | - |
| 1777639269 | 22.78° C | - | 1020.6 hPa | 0 mm | 3.58 m/s, 125° | - | - |
| 1777638664 | 23.33° C | - | 1020.6 hPa | 0 mm | 3.13 m/s, 28° | - | - |
| 1777638067 | 22.78° C | - | 1020.7 hPa | 0 mm | 3.58 m/s, 149° | - | - |
* Rain latest hour (hover to see other rain measurements)
** Current wind speed in m/s (hover to see current wind gust speed)